Date String (YYYY-MM-DD hh:mm:ss) UTC,Instrument flags,absolute air pressure of the measurement (hPa),sample flow rate (lpm),inlet stack bypass flow (lpm),air temperature of the measurement (°C),ambient temperature measured by the external sensor (°C),aerosol sample conditioner tube jacket temperature (°C),OPC LED temperature (°C),internal box temperature (°C),relative humidity of the measurement (%),span deviation,mass concentration of particles derived from Lorenz-Mie calculation of OPC scattering (μg/m³),mass concentration of particles derived from Lorenz-Mie calculation of OPC scattering (μg/m³),mass concentration of particles derived from Lorenz-Mie calculation of OPC scattering (μg/m³)
DateTimeUTC,F1_M11,P_M11,Q1_M11,Q2_M11,T1_M11,T2_M11,T3_M11,T4_M11,T5_M11,U1_M11,ZSPAN_M11,X2_M11,X0_M11,X1_M11
2024-03-13 20:00:00,SystemResetWarning,0820.1,5.00,000.00,021.0,020.2,000.0,029.5,022.8,22.6,0000.0,0003.39,0007.25,0002.52
2024-03-13 20:01:00,SystemResetWarning,0820.3,5.00,000.00,021.0,020.2,000.0,029.5,022.8,22.3,0000.0,0003.34,0007.05,0002.44
2024-03-13 20:02:00,SystemResetWarning,0820.2,5.00,000.00,021.0,020.3,000.0,029.5,022.8,22.0,0000.0,0003.30,0006.83,0002.41
2024-03-13 20:03:00,SystemResetWarning,0820.3,5.01,000.00,021.0,020.3,000.0,029.5,022.8,22.2,0000.0,0003.28,0006.65,0002.40
2024-03-13 20:04:00,SystemResetWarning,0820.1,5.00,000.00,021.0,020.3,000.0,029.5,022.8,22.0,0000.0,0003.23,0006.41,0002.36
2024-03-13 20:05:00,SystemResetWarning,0820.1,5.00,000.00,021.0,020.3,000.0,029.5,022.8,22.4,0000.0,0003.16,0006.51,0002.29
2024-03-13 20:06:00,SystemResetWarning,0820.1,5.00,000.00,021.0,020.2,000.0,029.5,022.8,22.3,0000.0,0003.13,0006.53,0002.24
2024-03-13 20:07:00,SystemResetWarning,0820.2,5.00,000.00,021.0,020.2,000.0,029.5,022.8,21.4,0000.0,0003.05,0006.80,0002.16
2024-03-13 20:08:00,SystemResetWarning,0820.2,5.00,000.00,021.0,020.3,000.0,029.5,022.8,21.8,0000.0,0002.96,0007.00,0002.12
2024-03-13 20:09:00,SystemResetWarning,0820.1,5.00,000.00,021.0,020.3,000.0,029.5,022.8,21.6,0000.0,0002.94,0007.02,0002.09
2024-03-13 20:10:00,SystemResetWarning,0820.1,4.99,000.00,021.0,020.3,000.0,029.5,022.8,21.6,0000.0,0002.88,0006.97,0002.04
2024-03-13 20:11:00,SystemResetWarning,0820.1,5.00,000.00,021.0,020.3,000.0,029.5,022.8,21.6,0000.0,0002.80,0006.34,0001.99
2024-03-13 20:12:00,SystemResetWarning,0820.1,5.01,000.00,021.0,020.3,000.0,029.5,022.8,22.1,0000.0,0002.76,0006.52,0001.99
2024-03-13 20:13:00,SystemResetWarning,0820.1,5.01,000.00,021.0,020.4,000.0,029.5,022.9,21.3,0000.0,0002.86,0007.59,0002.06
2024-03-13 20:14:00,SystemResetWarning,0820.1,5.00,000.00,021.0,020.4,000.0,029.5,022.9,21.2,0000.0,0002.89,0007.58,0002.08
2024-03-13 20:15:00,SystemResetWarning,0820.1,5.00,000.00,021.0,020.4,000.0,029.5,022.9,21.2,0000.0,0002.93,0007.59,0002.11
2024-03-13 20:16:00,SystemResetWarning,0820.1,5.00,000.00,021.1,020.4,000.0,029.5,022.9,21.2,0000.0,0002.94,0007.63,0002.12
2024-03-13 20:17:00,SystemResetWarning,0820.1,5.00,000.00,021.1,020.4,000.0,029.5,022.9,21.4,0000.0,0002.93,0007.83,0002.12
2024-03-13 20:18:00,SystemResetWarning,0820.0,5.00,000.00,021.1,020.4,000.0,029.5,022.9,21.0,0000.0,0002.94,0007.58,0002.11
2024-03-13 20:19:00,SystemResetWarning,0820.0,5.00,000.00,021.1,020.4,000.0,029.5,022.9,22.3,0000.0,0002.91,0007.30,0002.12
2024-03-13 20:20:00,SystemResetWarning,0820.0,4.99,000.00,021.1,020.4,000.0,029.5,022.9,23.5,0000.0,0002.99,0007.49,0002.15
2024-03-13 20:21:00,SystemResetWarning,0820.0,5.00,000.00,021.1,020.4,000.0,029.5,022.9,23.6,0000.0,0003.08,0008.47,0002.17
2024-03-13 20:22:00,SystemResetWarning,0820.2,5.01,000.00,021.1,020.5,000.0,029.5,022.9,23.7,0000.0,0003.07,0008.43,0002.18
2024-03-13 20:23:00,SystemResetWarning,0820.0,5.00,000.00,021.1,020.5,000.0,029.5,022.9,23.1,0000.0,0003.01,0008.17,0002.15
2024-03-13 20:24:00,SystemResetWarning,0820.0,5.00,000.00,021.1,020.5,000.0,029.6,022.9,23.3,0000.0,0002.91,0007.66,0002.06
2024-03-13 20:25:00,SystemResetWarning,0820.0,5.00,000.00,021.1,020.5,000.0,029.6,022.9,23.4,0000.0,0002.86,0007.74,0002.02
2024-03-13 20:26:00,SystemResetWarning,0820.0,5.00,000.00,021.1,020.5,000.0,029.6,023.0,23.4,0000.0,0002.76,0007.68,0001.97
2024-03-13 20:27:00,SystemResetWarning,0820.1,4.98,000.00,021.1,020.5,000.0,029.6,023.0,23.6,0000.0,0002.72,0007.43,0001.94
2024-03-13 20:28:00,SystemResetWarning,0820.2,5.00,000.00,021.1,020.5,000.0,029.6,023.0,23.9,0000.0,0002.72,0007.52,0001.93
2024-03-13 20:29:00,SystemResetWarning,0820.3,5.01,000.00,021.1,020.5,000.0,029.6,023.0,23.4,0000.0,0002.71,0007.51,0001.93
2024-03-13 20:30:00,SystemResetWarning,0820.0,5.01,000.00,021.2,020.5,000.0,029.6,023.0,23.1,0000.0,0002.72,0007.53,0001.93
2024-03-13 20:31:00,SystemResetWarning,0820.0,5.00,000.00,021.2,020.5,000.0,029.6,023.0,22.8,0000.0,0002.64,0007.30,0001.92
2024-03-13 20:32:00,SystemResetWarning,0820.1,4.99,000.00,021.2,020.6,000.0,029.6,023.0,23.1,0000.0,0002.54,0005.47,0001.90
2024-03-13 20:33:00,SystemResetWarning,0820.2,5.00,000.00,021.2,020.6,000.0,029.6,023.0,23.1,0000.0,0002.52,0005.40,0001.88
2024-03-13 20:34:00,SystemResetWarning,0820.0,5.01,000.00,021.2,020.5,000.0,029.6,023.0,22.9,0000.0,0002.48,0005.33,0001.85
2024-03-13 20:35:00,SystemResetWarning,0820.0,5.01,000.00,021.2,020.5,000.0,029.6,023.0,22.8,0000.0,0002.39,0004.83,0001.79
2024-03-13 20:36:00,SystemResetWarning,0820.0,5.00,000.00,021.2,020.6,000.0,029.6,023.0,23.5,0000.0,0002.36,0004.79,0001.76
2024-03-13 20:37:00,SystemResetWarning,0819.9,4.99,000.00,021.2,020.6,000.0,029.6,023.0,23.6,0000.0,0002.45,0004.88,0001.83
2024-03-13 20:38:00,SystemResetWarning,0820.0,5.00,000.00,021.2,020.6,000.0,029.6,023.0,23.1,0000.0,0002.62,0005.25,0001.92
2024-03-13 20:39:00,SystemResetWarning,0820.1,5.00,000.00,021.2,020.6,000.0,029.6,023.0,23.4,0000.0,0002.75,0005.02,0002.02
2024-03-13 20:40:00,SystemResetWarning,0819.9,5.00,000.00,021.2,020.6,000.0,029.6,023.0,23.3,0000.0,0002.89,0005.22,0002.11
2024-03-13 20:41:00,SystemResetWarning,0819.9,5.01,000.00,021.2,020.6,000.0,029.6,023.0,23.4,0000.0,0003.05,0005.44,0002.20
2024-03-13 20:42:00,SystemResetWarning,0819.9,5.01,000.00,021.2,020.6,000.0,029.7,023.1,22.5,0000.0,0003.16,0005.64,0002.31
2024-03-13 20:43:00,SystemResetWarning,0819.9,4.99,000.00,021.2,020.6,000.0,029.7,023.1,22.3,0000.0,0003.22,0005.76,0002.43
2024-03-13 20:44:00,SystemResetWarning,0820.0,4.99,000.00,021.2,020.6,000.0,029.7,023.1,22.5,0000.0,0003.27,0005.85,0002.56
2024-03-13 20:45:00,SystemResetWarning,0819.8,5.00,000.00,021.3,020.6,000.0,029.7,023.1,23.0,0000.0,0003.38,0006.18,0002.72
2024-03-13 20:46:00,SystemResetWarning,0819.8,5.00,000.00,021.3,020.6,000.0,029.7,023.1,23.2,0000.0,0003.54,0006.67,0002.91
2024-03-13 20:47:00,SystemResetWarning,0820.0,5.00,000.00,021.3,020.7,000.0,029.7,023.1,23.1,0000.0,0003.62,0006.71,0003.03
2024-03-13 20:48:00,SystemResetWarning,0819.8,5.01,000.00,021.3,020.7,000.0,029.7,023.1,23.3,0000.0,0003.65,0006.75,0003.08
2024-03-13 20:49:00,SystemResetWarning,0819.8,5.01,000.00,021.3,020.7,000.0,029.7,023.1,23.5,0000.0,0003.71,0007.83,0003.11
2024-03-13 20:50:00,SystemResetWarning,0819.9,4.99,000.00,021.3,020.7,000.0,029.7,023.1,23.7,0000.0,0003.72,0007.92,0003.14
2024-03-13 20:51:00,SystemResetWarning,0820.0,5.00,000.00,021.3,020.7,000.0,029.7,023.1,23.9,0000.0,0003.75,0007.93,0003.19
2024-03-13 20:52:00,SystemResetWarning,0819.8,5.00,000.00,021.3,020.7,000.0,029.7,023.2,23.6,0000.0,0003.77,0008.04,0003.22
2024-03-13 20:53:00,SystemResetWarning,0819.9,5.00,000.00,021.3,020.7,000.0,029.7,023.2,23.8,0000.0,0003.78,0008.07,0003.25
2024-03-13 20:54:00,SystemResetWarning,0819.9,4.99,000.00,021.3,020.7,000.0,029.7,023.2,24.3,0000.0,0003.88,0008.31,0003.30
2024-03-13 20:55:00,SystemResetWarning,0819.9,5.00,000.00,021.3,020.8,000.0,029.7,023.2,25.1,0000.0,0003.96,0008.44,0003.35
2024-03-13 20:56:00,SystemResetWarning,0820.3,5.00,000.00,021.3,020.8,000.0,029.8,023.2,24.7,0000.0,0004.03,0008.57,0003.39
2024-03-13 20:57:00,SystemResetWarning,0820.3,5.00,000.00,021.4,020.8,000.0,029.8,023.2,23.5,0000.0,0004.02,0009.29,0003.40
2024-03-13 20:58:00,SystemResetWarning,0820.4,5.00,000.00,021.4,020.8,000.0,029.8,023.2,23.7,0000.0,0004.02,0009.54,0003.42
2024-03-13 20:59:00,SystemResetWarning,0819.9,5.01,000.00,021.4,020.8,000.0,029.8,023.2,23.6,0000.0,0004.06,0009.69,0003.45
